Time,TemperatureF,DewpointF,PressureIn,WindDirection,WindDirectionDegrees,WindSpeedMPH,WindSpeedGustMPH,Humidity,HourlyPrecipIn,Conditions,Clouds,dailyrainin,SoftwareType,DateUTC
2013-06-25 00:02:00,69.1,64.4,29.84,SSE,158,0.0,0.0,85,0.00,,,0.00,WUHU216HW,2013-06-25 05:02:00,
2013-06-25 00:07:00,68.9,64.3,29.83,SSE,158,0.0,0.0,85,0.00,,,0.00,WUHU216HW,2013-06-25 05:07:00,
2013-06-25 00:12:00,68.8,64.7,29.83,SSE,158,0.0,0.0,87,0.00,,,0.00,WUHU216HW,2013-06-25 05:12:00,
2013-06-25 00:17:00,68.8,64.7,29.85,SSE,158,0.0,0.0,87,0.00,,,0.00,WUHU216HW,2013-06-25 05:17:00,
2013-06-25 00:22:00,68.9,65.3,29.89,SSE,158,0.0,0.0,88,0.00,,,0.00,WUHU216HW,2013-06-25 05:22:00,
2013-06-25 00:27:00,69.1,65.4,29.90,SSE,158,0.0,0.0,88,0.07,,,0.07,WUHU216HW,2013-06-25 05:27:00,
2013-06-25 00:32:00,68.6,64.9,29.88,SSE,158,0.0,0.0,88,0.17,,,0.17,WUHU216HW,2013-06-25 05:32:00,
2013-06-25 00:37:00,68.0,64.4,29.86,SSE,158,0.0,0.0,88,0.19,,,0.19,WUHU216HW,2013-06-25 05:37:00,
2013-06-25 00:42:00,67.7,64.3,29.86,SSE,158,0.0,0.0,89,0.19,,,0.19,WUHU216HW,2013-06-25 05:42:00,
2013-06-25 00:47:00,67.7,64.3,29.86,SSE,158,0.0,0.0,89,0.20,,,0.20,WUHU216HW,2013-06-25 05:47:00,
2013-06-25 00:52:00,67.5,64.1,29.86,SSE,158,0.0,0.0,89,0.21,,,0.21,WUHU216HW,2013-06-25 05:52:00,
2013-06-25 00:57:00,67.3,63.9,29.86,SSE,158,0.0,0.0,89,0.22,,,0.22,WUHU216HW,2013-06-25 05:57:00,
2013-06-25 01:02:00,67.3,63.9,29.86,SSE,158,0.0,0.0,89,0.23,,,0.23,WUHU216HW,2013-06-25 06:02:00,
2013-06-25 01:07:00,67.5,64.4,29.89,SSE,158,0.0,0.0,90,0.25,,,0.25,WUHU216HW,2013-06-25 06:07:00,
2013-06-25 01:12:00,67.5,64.7,29.90,SSE,158,0.0,0.0,91,0.30,,,0.27,WUHU216HW,2013-06-25 06:12:00,
2013-06-25 01:17:00,67.5,64.7,29.88,SSE,158,0.0,0.0,91,0.55,,,0.55,WUHU216HW,2013-06-25 06:17:00,
2013-06-25 01:22:00,67.0,64.2,29.88,SSE,158,0.0,0.0,91,0.61,,,0.61,WUHU216HW,2013-06-25 06:22:00,
2013-06-25 01:27:00,66.6,63.8,29.88,SSE,158,0.0,0.0,91,0.54,,,0.65,WUHU216HW,2013-06-25 06:27:00,
2013-06-25 01:32:00,66.4,63.6,29.86,SSE,158,0.0,0.0,91,0.47,,,0.66,WUHU216HW,2013-06-25 06:32:00,
2013-06-25 01:37:00,66.4,63.6,29.87,SSE,158,0.0,0.0,91,0.47,,,0.66,WUHU216HW,2013-06-25 06:37:00,
2013-06-25 01:42:00,66.4,63.6,29.87,SSE,158,0.0,0.0,91,0.47,,,0.67,WUHU216HW,2013-06-25 06:42:00,
2013-06-25 01:47:00,66.2,63.5,29.85,SSE,158,0.0,0.0,91,0.47,,,0.68,WUHU216HW,2013-06-25 06:47:00,
2013-06-25 01:52:00,66.4,63.6,29.84,SSE,158,0.0,0.0,91,0.47,,,0.69,WUHU216HW,2013-06-25 06:52:00,
2013-06-25 01:57:00,66.2,63.5,29.83,SSE,158,0.0,0.0,91,0.47,,,0.70,WUHU216HW,2013-06-25 06:57:00,
2013-06-25 02:02:00,66.2,63.5,29.81,SSE,158,0.0,0.0,91,0.46,,,0.70,WUHU216HW,2013-06-25 07:02:00,
2013-06-25 02:07:00,66.2,63.5,29.82,SSE,158,0.0,0.0,91,0.46,,,0.71,WUHU216HW,2013-06-25 07:07:00,
2013-06-25 02:12:00,66.2,63.5,29.83,SSE,158,0.0,0.0,91,0.25,,,0.72,WUHU216HW,2013-06-25 07:12:00,
2013-06-25 02:17:00,66.1,63.4,29.84,SSE,158,0.0,0.0,91,0.15,,,0.73,WUHU216HW,2013-06-25 07:17:00,
2013-06-25 02:22:00,66.1,63.4,29.85,SSE,158,0.0,0.0,91,0.12,,,0.75,WUHU216HW,2013-06-25 07:22:00,
2013-06-25 02:27:00,66.1,63.4,29.87,SSE,158,0.0,0.0,91,0.11,,,0.76,WUHU216HW,2013-06-25 07:27:00,
2013-06-25 02:32:00,65.9,63.2,29.87,SSE,158,0.0,0.0,91,0.16,,,0.81,WUHU216HW,2013-06-25 07:32:00,
2013-06-25 02:37:00,65.9,63.5,29.88,SSE,158,0.0,0.0,92,0.18,,,0.85,WUHU216HW,2013-06-25 07:37:00,
2013-06-25 02:42:00,65.9,63.5,29.85,SSE,158,0.0,0.0,92,0.22,,,0.89,WUHU216HW,2013-06-25 07:42:00,
2013-06-25 02:47:00,65.9,63.5,29.85,SSE,158,0.0,0.0,92,0.22,,,0.90,WUHU216HW,2013-06-25 07:47:00,
2013-06-25 02:52:00,65.9,63.5,29.86,SSE,158,0.0,0.0,92,0.22,,,0.91,WUHU216HW,2013-06-25 07:52:00,
2013-06-25 02:57:00,65.9,63.5,29.85,SSE,158,0.0,0.0,92,0.22,,,0.92,WUHU216HW,2013-06-25 07:57:00,
2013-06-25 03:02:00,65.9,63.5,29.84,SSE,158,0.0,0.0,92,0.22,,,0.92,WUHU216HW,2013-06-25 08:02:00,
2013-06-25 03:07:00,65.9,63.2,29.84,SSE,158,0.0,0.0,91,0.22,,,0.94,WUHU216HW,2013-06-25 08:07:00,
2013-06-25 03:12:00,65.9,63.2,29.84,SSE,158,0.0,0.0,91,0.20,,,0.94,WUHU216HW,2013-06-25 08:12:00,
2013-06-25 03:17:00,65.9,63.2,29.84,SSE,158,0.0,0.0,91,0.20,,,0.94,WUHU216HW,2013-06-25 08:17:00,
2013-06-25 03:22:00,65.9,63.2,29.84,SSE,158,0.0,0.0,91,0.20,,,0.96,WUHU216HW,2013-06-25 08:22:00,
2013-06-25 03:27:00,65.9,63.2,29.84,SSE,158,0.0,0.0,91,0.19,,,0.96,WUHU216HW,2013-06-25 08:27:00,
2013-06-25 03:32:00,65.9,63.2,29.84,SSE,158,0.0,0.0,91,0.12,,,0.96,WUHU216HW,2013-06-25 08:32:00,
2013-06-25 03:37:00,65.9,63.2,29.84,SSE,158,0.0,0.0,91,0.09,,,0.97,WUHU216HW,2013-06-25 08:37:00,
2013-06-25 03:42:00,65.7,63.3,29.86,SSE,158,0.0,0.0,92,0.07,,,0.97,WUHU216HW,2013-06-25 08:42:00,
2013-06-25 03:47:00,65.5,63.1,29.85,SSE,158,0.0,0.0,92,0.18,,,1.10,WUHU216HW,2013-06-25 08:47:00,
2013-06-25 03:52:00,65.5,63.1,29.87,SSE,158,0.0,0.0,92,0.22,,,1.14,WUHU216HW,2013-06-25 08:52:00,
2013-06-25 03:57:00,65.3,62.6,29.86,SSE,158,0.0,0.0,91,0.25,,,1.18,WUHU216HW,2013-06-25 08:57:00,
2013-06-25 04:02:00,65.3,63.0,29.87,SSE,158,0.0,0.0,92,0.35,,,1.28,WUHU216HW,2013-06-25 09:02:00,
2013-06-25 04:07:00,65.2,62.8,29.85,SSE,158,0.0,0.0,92,0.43,,,1.36,WUHU216HW,2013-06-25 09:07:00,
2013-06-25 04:12:00,65.2,62.8,29.86,SSE,158,0.0,0.0,92,0.53,,,1.47,WUHU216HW,2013-06-25 09:12:00,
2013-06-25 04:17:00,65.2,62.8,29.87,SSE,158,0.0,0.0,92,0.55,,,1.50,WUHU216HW,2013-06-25 09:17:00,
2013-06-25 04:22:00,65.0,62.7,29.86,SSE,158,0.0,0.0,92,0.57,,,1.52,WUHU216HW,2013-06-25 09:22:00,
2013-06-25 04:27:00,65.0,62.7,29.84,SSE,158,0.0,0.0,92,0.59,,,1.55,WUHU216HW,2013-06-25 09:27:00,
2013-06-25 04:32:00,65.0,62.7,29.85,SSE,158,0.0,0.0,92,0.63,,,1.60,WUHU216HW,2013-06-25 09:32:00,
2013-06-25 04:37:00,65.0,62.7,29.85,SSE,158,0.0,0.0,92,0.65,,,1.62,WUHU216HW,2013-06-25 09:37:00,
2013-06-25 04:42:00,64.8,62.5,29.85,SSE,158,0.0,0.0,92,0.65,,,1.64,WUHU216HW,2013-06-25 09:42:00,
2013-06-25 04:47:00,65.0,62.7,29.87,SSE,158,0.0,0.0,92,0.59,,,1.71,WUHU216HW,2013-06-25 09:47:00,
2013-06-25 04:52:00,64.8,62.5,29.86,SSE,158,0.0,0.0,92,0.60,,,1.76,WUHU216HW,2013-06-25 09:52:00,
2013-06-25 04:57:00,64.8,62.5,29.85,SSE,158,0.0,0.0,92,0.57,,,1.80,WUHU216HW,2013-06-25 09:57:00,
2013-06-25 05:02:00,64.6,62.3,29.86,SSE,158,0.0,0.0,92,0.55,,,1.84,WUHU216HW,2013-06-25 10:02:00,
2013-06-25 05:07:00,64.6,62.3,29.86,SSE,158,0.0,0.0,92,0.47,,,1.84,WUHU216HW,2013-06-25 10:07:00,
2013-06-25 05:12:00,64.6,62.3,29.86,SSE,158,0.0,0.0,92,0.35,,,1.84,WUHU216HW,2013-06-25 10:12:00,
2013-06-25 05:17:00,64.6,62.3,29.86,SSE,158,0.0,0.0,92,0.33,,,1.85,WUHU216HW,2013-06-25 10:17:00,
2013-06-25 05:22:00,64.6,62.3,29.86,SSE,158,0.0,0.0,92,0.33,,,1.86,WUHU216HW,2013-06-25 10:22:00,
2013-06-25 05:27:00,64.6,62.3,29.85,SSE,158,0.0,0.0,92,0.30,,,1.87,WUHU216HW,2013-06-25 10:27:00,
2013-06-25 05:32:00,64.6,62.3,29.84,SSE,158,0.0,0.0,92,0.28,,,1.89,WUHU216HW,2013-06-25 10:32:00,
2013-06-25 05:37:00,64.6,62.3,29.83,SSE,158,0.0,0.0,92,0.26,,,1.90,WUHU216HW,2013-06-25 10:37:00,
2013-06-25 05:42:00,64.6,62.3,29.82,SSE,158,0.0,0.0,92,0.24,,,1.90,WUHU216HW,2013-06-25 10:42:00,
2013-06-25 05:47:00,64.4,62.1,29.82,SSE,158,0.0,0.0,92,0.19,,,1.90,WUHU216HW,2013-06-25 10:47:00,
2013-06-25 05:52:00,64.4,62.1,29.83,SSE,158,0.0,0.0,92,0.11,,,1.91,WUHU216HW,2013-06-25 10:52:00,
2013-06-25 05:57:00,64.4,62.1,29.84,SSE,158,0.0,0.0,92,0.09,,,1.92,WUHU216HW,2013-06-25 10:57:00,
2013-06-25 06:02:00,64.4,62.1,29.84,SSE,158,0.0,0.0,92,0.08,,,1.92,WUHU216HW,2013-06-25 11:02:00,
2013-06-25 06:07:00,64.4,62.1,29.83,SSE,158,0.0,0.0,92,0.08,,,1.92,WUHU216HW,2013-06-25 11:07:00,
2013-06-25 06:12:00,64.4,62.1,29.83,SSE,158,0.0,0.0,92,0.07,,,1.92,WUHU216HW,2013-06-25 11:12:00,
2013-06-25 06:17:00,64.4,62.1,29.82,SSE,158,0.0,0.0,92,0.06,,,1.92,WUHU216HW,2013-06-25 11:17:00,
2013-06-25 06:22:00,64.4,62.1,29.82,SSE,158,0.0,0.0,92,0.06,,,1.92,WUHU216HW,2013-06-25 11:22:00,
2013-06-25 06:27:00,64.6,62.3,29.82,SSE,158,0.0,0.0,92,0.05,,,1.92,WUHU216HW,2013-06-25 11:27:00,
2013-06-25 06:32:00,64.6,62.3,29.81,SSE,158,0.0,0.0,92,0.02,,,1.92,WUHU216HW,2013-06-25 11:32:00,
2013-06-25 06:37:00,64.8,62.5,29.81,SSE,158,0.0,0.0,92,0.02,,,1.92,WUHU216HW,2013-06-25 11:37:00,
2013-06-25 06:42:00,65.0,62.7,29.80,SSE,158,0.0,0.0,92,0.02,,,1.92,WUHU216HW,2013-06-25 11:42:00,
2013-06-25 06:47:00,65.0,62.7,29.80,SSE,158,0.0,0.0,92,0.02,,,1.92,WUHU216HW,2013-06-25 11:47:00,
2013-06-25 06:52:00,65.0,62.9,29.80,SSE,158,0.0,0.0,93,0.00,,,1.92,WUHU216HW,2013-06-25 11:52:00,
2013-06-25 06:57:00,65.2,62.8,29.79,SSE,158,0.0,0.0,92,0.00,,,1.92,WUHU216HW,2013-06-25 11:57:00,
2013-06-25 07:02:00,65.2,62.8,29.79,SSE,158,0.0,0.0,92,0.00,,,1.92,WUHU216HW,2013-06-25 12:02:00,
2013-06-25 07:07:00,65.5,63.5,29.80,SSE,158,0.0,0.0,93,0.00,,,1.92,WUHU216HW,2013-06-25 12:07:00,
2013-06-25 07:12:00,66.1,63.9,29.81,SSE,158,0.0,0.0,93,0.01,,,1.93,WUHU216HW,2013-06-25 12:12:00,
2013-06-25 07:17:00,66.4,64.6,29.82,SSE,158,0.0,0.0,94,0.01,,,1.93,WUHU216HW,2013-06-25 12:17:00,
2013-06-25 07:22:00,66.4,64.6,29.82,SSE,158,0.0,0.0,94,0.01,,,1.93,WUHU216HW,2013-06-25 12:22:00,
2013-06-25 07:27:00,66.2,64.1,29.82,SSE,158,0.0,0.0,93,0.01,,,1.93,WUHU216HW,2013-06-25 12:27:00,
2013-06-25 07:32:00,65.9,63.7,29.81,SSE,158,0.0,0.0,93,0.01,,,1.93,WUHU216HW,2013-06-25 12:32:00,
2013-06-25 07:37:00,65.9,63.7,29.82,SSE,158,0.0,0.0,93,0.01,,,1.93,WUHU216HW,2013-06-25 12:37:00,
2013-06-25 07:42:00,65.9,63.7,29.83,SSE,158,0.0,0.0,93,0.01,,,1.93,WUHU216HW,2013-06-25 12:42:00,
2013-06-25 07:47:00,65.9,63.7,29.84,SSE,158,0.0,0.0,93,0.01,,,1.93,WUHU216HW,2013-06-25 12:47:00,
2013-06-25 07:52:00,65.9,63.5,29.84,SSE,158,0.0,0.0,92,0.01,,,1.93,WUHU216HW,2013-06-25 12:52:00,
2013-06-25 07:57:00,65.9,63.5,29.84,SSE,158,0.0,0.0,92,0.01,,,1.93,WUHU216HW,2013-06-25 12:57:00,
2013-06-25 08:02:00,65.9,63.5,29.84,SSE,158,0.0,0.0,92,0.01,,,1.93,WUHU216HW,2013-06-25 13:02:00,
2013-06-25 08:07:00,65.7,63.3,29.84,SSE,158,0.0,0.0,92,0.01,,,1.93,WUHU216HW,2013-06-25 13:07:00,
2013-06-25 08:12:00,65.9,63.5,29.84,SSE,158,0.0,0.0,92,0.00,,,1.93,WUHU216HW,2013-06-25 13:12:00,
2013-06-25 08:17:00,65.9,63.5,29.84,SSE,158,0.0,0.0,92,0.00,,,1.93,WUHU216HW,2013-06-25 13:17:00,
2013-06-25 08:22:00,65.9,63.7,29.85,SSE,158,0.0,0.0,93,0.00,,,1.93,WUHU216HW,2013-06-25 13:22:00,
2013-06-25 08:27:00,65.9,63.5,29.87,SSE,158,0.0,0.0,92,0.01,,,1.94,WUHU216HW,2013-06-25 13:27:00,
2013-06-25 08:32:00,65.9,63.5,29.88,SSE,158,0.0,0.0,92,0.02,,,1.95,WUHU216HW,2013-06-25 13:32:00,
2013-06-25 08:37:00,65.9,63.5,29.88,SSE,158,0.0,0.0,92,0.03,,,1.96,WUHU216HW,2013-06-25 13:37:00,
2013-06-25 08:42:00,65.9,63.5,29.88,SSE,158,0.0,0.0,92,0.05,,,1.98,WUHU216HW,2013-06-25 13:42:00,
2013-06-25 08:47:00,65.9,63.5,29.87,SSE,158,0.0,0.0,92,0.06,,,1.99,WUHU216HW,2013-06-25 13:47:00,
2013-06-25 08:52:00,65.7,63.3,29.86,SSE,158,0.0,0.0,92,0.07,,,2.00,WUHU216HW,2013-06-25 13:52:00,
2013-06-25 08:57:00,65.7,63.3,29.86,SSE,158,0.0,0.0,92,0.07,,,2.00,WUHU216HW,2013-06-25 13:57:00,
2013-06-25 09:02:00,65.5,63.1,29.85,SSE,158,0.0,0.0,92,0.08,,,2.01,WUHU216HW,2013-06-25 14:02:00,
2013-06-25 09:07:00,65.5,63.1,29.84,SSE,158,0.0,0.0,92,0.09,,,2.02,WUHU216HW,2013-06-25 14:07:00,
2013-06-25 09:12:00,65.5,63.5,29.83,SSE,158,0.0,0.0,93,0.10,,,2.03,WUHU216HW,2013-06-25 14:12:00,
2013-06-25 09:17:00,65.5,63.1,29.83,SSE,158,0.0,0.0,92,0.11,,,2.04,WUHU216HW,2013-06-25 14:17:00,
2013-06-25 09:22:00,65.7,63.3,29.83,SSE,158,0.0,0.0,92,0.11,,,2.04,WUHU216HW,2013-06-25 14:22:00,
2013-06-25 09:27:00,65.7,63.3,29.83,SSE,158,0.0,0.0,92,0.10,,,2.04,WUHU216HW,2013-06-25 14:27:00,
2013-06-25 09:32:00,65.9,63.5,29.81,SSE,158,0.0,0.0,92,0.09,,,2.05,WUHU216HW,2013-06-25 14:32:00,
2013-06-25 09:37:00,65.9,63.5,29.81,SSE,158,0.0,0.0,92,0.08,,,2.05,WUHU216HW,2013-06-25 14:37:00,
2013-06-25 09:42:00,66.1,63.6,29.80,SSE,158,0.0,0.0,92,0.07,,,2.05,WUHU216HW,2013-06-25 14:42:00,
2013-06-25 09:47:00,66.1,63.6,29.79,SSE,158,0.0,0.0,92,0.06,,,2.05,WUHU216HW,2013-06-25 14:47:00,
2013-06-25 09:52:00,66.4,64.3,29.82,SSE,158,0.0,0.0,93,0.05,,,2.05,WUHU216HW,2013-06-25 14:52:00,
2013-06-25 09:57:00,66.2,64.1,29.81,SSE,158,0.0,0.0,93,0.05,,,2.05,WUHU216HW,2013-06-25 14:57:00,
2013-06-25 10:02:00,66.4,64.3,29.78,SSE,158,0.0,0.0,93,0.03,,,2.05,WUHU216HW,2013-06-25 15:02:00,
2013-06-25 10:07:00,66.4,64.6,29.76,SSE,158,0.0,0.0,94,0.03,,,2.05,WUHU216HW,2013-06-25 15:07:00,
2013-06-25 10:12:00,66.6,64.8,29.78,SSE,158,0.0,0.0,94,0.02,,,2.05,WUHU216HW,2013-06-25 15:12:00,
2013-06-25 10:17:00,66.8,65.0,29.79,SSE,158,0.0,0.0,94,0.01,,,2.05,WUHU216HW,2013-06-25 15:17:00,
2013-06-25 10:22:00,67.0,65.2,29.80,SSE,158,0.0,0.0,94,0.01,,,2.05,WUHU216HW,2013-06-25 15:22:00,
2013-06-25 10:27:00,67.3,65.5,29.79,SSE,158,0.0,0.0,94,0.00,,,2.05,WUHU216HW,2013-06-25 15:27:00,
2013-06-25 10:32:00,67.3,65.5,29.80,SSE,158,0.0,0.0,94,0.00,,,2.05,WUHU216HW,2013-06-25 15:32:00,
2013-06-25 10:37:00,67.5,65.7,29.81,SSE,158,0.0,0.0,94,0.00,,,2.05,WUHU216HW,2013-06-25 15:37:00,
2013-06-25 10:42:00,67.5,65.3,29.82,SSE,158,0.0,0.0,93,0.00,,,2.05,WUHU216HW,2013-06-25 15:42:00,
2013-06-25 10:47:00,67.7,65.5,29.83,SSE,158,0.0,0.0,93,0.00,,,2.05,WUHU216HW,2013-06-25 15:47:00,
2013-06-25 10:52:00,68.2,66.1,29.83,SSE,158,0.0,0.0,93,0.00,,,2.05,WUHU216HW,2013-06-25 15:52:00,
2013-06-25 10:57:00,69.1,67.0,29.84,SSE,158,0.0,0.0,93,0.00,,,2.05,WUHU216HW,2013-06-25 15:57:00,
2013-06-25 11:02:00,69.5,67.3,29.85,SSE,158,0.0,0.0,93,0.00,,,2.05,WUHU216HW,2013-06-25 16:02:00,
2013-06-25 11:07:00,69.8,67.7,29.85,SSE,158,0.0,0.0,93,0.00,,,2.05,WUHU216HW,2013-06-25 16:07:00,
2013-06-25 11:12:00,70.6,68.4,29.84,SSE,158,0.0,0.0,93,0.00,,,2.05,WUHU216HW,2013-06-25 16:12:00,
2013-06-25 11:17:00,71.1,68.7,29.84,SSE,158,0.0,0.0,92,0.00,,,2.05,WUHU216HW,2013-06-25 16:17:00,
2013-06-25 11:22:00,71.6,69.2,29.84,SSE,158,0.0,0.0,92,0.00,,,2.05,WUHU216HW,2013-06-25 16:22:00,
2013-06-25 11:27:00,72.0,69.2,29.84,SSE,158,0.0,0.0,91,0.00,,,2.05,WUHU216HW,2013-06-25 16:27:00,
2013-06-25 11:32:00,72.4,69.6,29.85,SSE,158,0.0,0.0,91,0.00,,,2.05,WUHU216HW,2013-06-25 16:32:00,
2013-06-25 11:37:00,71.8,69.0,29.85,SSE,158,0.0,0.0,91,0.00,,,2.05,WUHU216HW,2013-06-25 16:37:00,
2013-06-25 11:42:00,71.8,68.8,29.85,SSE,158,0.0,0.0,90,0.00,,,2.05,WUHU216HW,2013-06-25 16:42:00,
2013-06-25 11:47:00,72.0,68.6,29.85,SSE,158,0.0,0.0,89,0.00,,,2.05,WUHU216HW,2013-06-25 16:47:00,
2013-06-25 11:52:00,72.4,68.3,29.85,SSE,158,0.0,0.0,87,0.00,,,2.05,WUHU216HW,2013-06-25 16:52:00,
2013-06-25 11:57:00,73.4,69.7,29.84,SSE,158,0.0,0.0,88,0.00,,,2.05,WUHU216HW,2013-06-25 16:57:00,
2013-06-25 12:02:00,74.9,70.8,29.83,SSE,158,0.0,0.0,87,0.00,,,2.05,WUHU216HW,2013-06-25 17:02:00,
2013-06-25 12:07:00,76.0,71.8,29.82,SSE,158,0.0,0.0,87,0.00,,,2.05,WUHU216HW,2013-06-25 17:07:00,
2013-06-25 12:12:00,77.2,70.9,29.81,SSE,158,0.0,0.0,81,0.00,,,2.05,WUHU216HW,2013-06-25 17:12:00,
2013-06-25 12:17:00,78.1,72.2,29.81,SSE,158,0.0,0.0,82,0.00,,,2.05,WUHU216HW,2013-06-25 17:17:00,
2013-06-25 12:22:00,79.7,73.5,29.82,SSE,158,0.0,0.0,81,0.00,,,2.05,WUHU216HW,2013-06-25 17:22:00,
2013-06-25 12:27:00,81.2,74.9,29.82,SSE,158,0.0,0.0,81,0.00,,,2.05,WUHU216HW,2013-06-25 17:27:00,
2013-06-25 12:32:00,82.1,73.4,29.82,SSE,158,0.0,0.0,75,0.00,,,2.05,WUHU216HW,2013-06-25 17:32:00,
2013-06-25 12:37:00,82.3,72.7,29.81,SSE,158,0.0,0.0,73,0.00,,,2.05,WUHU216HW,2013-06-25 17:37:00,
2013-06-25 12:42:00,82.1,72.5,29.81,SSE,158,0.0,0.0,73,0.00,,,2.05,WUHU216HW,2013-06-25 17:42:00,
2013-06-25 12:47:00,82.8,72.8,29.81,SSE,158,0.0,0.0,72,0.00,,,2.05,WUHU216HW,2013-06-25 17:47:00,
2013-06-25 12:52:00,83.2,71.5,29.81,SSE,158,0.0,0.0,68,0.00,,,2.05,WUHU216HW,2013-06-25 17:52:00,
2013-06-25 12:57:00,83.2,71.9,29.81,SSE,158,0.0,0.0,69,0.00,,,2.05,WUHU216HW,2013-06-25 17:57:00,
2013-06-25 13:02:00,83.5,70.0,29.82,SSE,158,0.0,0.0,64,0.00,,,2.05,WUHU216HW,2013-06-25 18:02:00,
2013-06-25 13:07:00,82.8,70.2,29.82,SSE,158,0.0,0.0,66,0.00,,,2.05,WUHU216HW,2013-06-25 18:07:00,
2013-06-25 13:12:00,82.6,70.0,29.82,SSE,158,0.0,0.0,66,0.00,,,2.05,WUHU216HW,2013-06-25 18:12:00,
2013-06-25 13:17:00,83.0,70.8,29.82,SSE,158,0.0,0.0,67,0.00,,,2.05,WUHU216HW,2013-06-25 18:17:00,
2013-06-25 13:22:00,83.2,71.0,29.83,SSE,158,0.0,0.0,67,0.00,,,2.05,WUHU216HW,2013-06-25 18:22:00,
2013-06-25 13:27:00,83.2,71.5,29.83,SSE,158,0.0,0.0,68,0.00,,,2.05,WUHU216HW,2013-06-25 18:27:00,
2013-06-25 13:32:00,84.2,72.5,29.83,SSE,158,0.0,0.0,68,0.00,,,2.05,WUHU216HW,2013-06-25 18:32:00,
2013-06-25 13:37:00,84.6,72.0,29.83,SSE,158,0.0,0.0,66,0.00,,,2.05,WUHU216HW,2013-06-25 18:37:00,
2013-06-25 13:42:00,84.2,71.6,29.82,SSE,158,0.0,0.0,66,0.00,,,2.05,WUHU216HW,2013-06-25 18:42:00,
2013-06-25 13:47:00,84.6,72.5,29.82,SSE,158,0.0,0.0,67,0.00,,,2.05,WUHU216HW,2013-06-25 18:47:00,
2013-06-25 13:52:00,84.8,71.7,29.82,SSE,158,0.0,0.0,65,0.00,,,2.05,WUHU216HW,2013-06-25 18:52:00,
2013-06-25 13:57:00,84.2,71.6,29.82,SSE,158,0.0,0.0,66,0.00,,,2.05,WUHU216HW,2013-06-25 18:57:00,
2013-06-25 14:02:00,85.3,73.2,29.82,SSE,158,0.0,0.0,67,0.00,,,2.05,WUHU216HW,2013-06-25 19:02:00,
2013-06-25 14:07:00,85.7,72.1,29.81,SSE,158,0.0,0.0,64,0.00,,,2.05,WUHU216HW,2013-06-25 19:07:00,
2013-06-25 14:12:00,85.3,71.7,29.82,SSE,158,0.0,0.0,64,0.00,,,2.05,WUHU216HW,2013-06-25 19:12:00,
2013-06-25 14:17:00,84.8,71.7,29.82,SSE,158,0.0,0.0,65,0.00,,,2.05,WUHU216HW,2013-06-25 19:17:00,
2013-06-25 14:22:00,84.6,72.5,29.81,SSE,158,0.0,0.0,67,0.00,,,2.05,WUHU216HW,2013-06-25 19:22:00,
2013-06-25 14:27:00,85.0,72.8,29.81,SSE,158,0.0,0.0,67,0.00,,,2.05,WUHU216HW,2013-06-25 19:27:00,
2013-06-25 14:32:00,86.0,73.8,29.81,SSE,158,0.0,0.0,67,0.00,,,2.05,WUHU216HW,2013-06-25 19:32:00,
2013-06-25 14:37:00,86.2,72.2,29.81,SSE,158,0.0,0.0,63,0.00,,,2.05,WUHU216HW,2013-06-25 19:37:00,
2013-06-25 14:42:00,85.7,73.0,29.80,SSE,158,0.0,0.0,66,0.00,,,2.05,WUHU216HW,2013-06-25 19:42:00,
2013-06-25 14:47:00,87.5,72.9,29.80,SSE,158,0.0,0.0,62,0.00,,,2.05,WUHU216HW,2013-06-25 19:47:00,
2013-06-25 14:52:00,86.4,72.3,29.80,SSE,158,0.0,0.0,63,0.00,,,2.05,WUHU216HW,2013-06-25 19:52:00,
2013-06-25 14:57:00,86.8,74.1,29.79,SSE,158,0.0,0.0,66,0.00,,,2.05,WUHU216HW,2013-06-25 19:57:00,
2013-06-25 15:02:00,88.7,74.5,29.79,SSE,158,0.0,0.0,63,0.00,,,2.05,WUHU216HW,2013-06-25 20:02:00,
2013-06-25 15:07:00,89.6,74.0,29.79,SSE,158,0.0,0.0,60,0.00,,,2.05,WUHU216HW,2013-06-25 20:07:00,
2013-06-25 15:12:00,89.3,73.6,29.79,SSE,158,0.0,0.0,60,0.00,,,2.05,WUHU216HW,2013-06-25 20:12:00,
2013-06-25 15:17:00,88.7,72.6,29.78,SSE,158,0.0,0.0,59,0.00,,,2.05,WUHU216HW,2013-06-25 20:17:00,
2013-06-25 15:22:00,88.4,73.3,29.79,SSE,158,0.0,0.0,61,0.00,,,2.05,WUHU216HW,2013-06-25 20:22:00,
2013-06-25 15:27:00,88.4,72.8,29.78,SSE,158,0.0,0.0,60,0.00,,,2.05,WUHU216HW,2013-06-25 20:27:00,
2013-06-25 15:32:00,87.5,72.9,29.78,SSE,158,0.0,0.0,62,0.00,,,2.05,WUHU216HW,2013-06-25 20:32:00,
2013-06-25 15:37:00,86.4,72.8,29.78,SSE,158,0.0,0.0,64,0.00,,,2.05,WUHU216HW,2013-06-25 20:37:00,
2013-06-25 15:42:00,86.8,73.6,29.78,SSE,158,0.0,0.0,65,0.00,,,2.05,WUHU216HW,2013-06-25 20:42:00,
2013-06-25 15:47:00,89.1,75.3,29.78,SSE,158,0.0,0.0,64,0.00,,,2.05,WUHU216HW,2013-06-25 20:47:00,
2013-06-25 15:52:00,89.8,72.6,29.79,SSE,158,0.0,0.0,57,0.00,,,2.05,WUHU216HW,2013-06-25 20:52:00,
2013-06-25 15:57:00,89.3,74.2,29.78,SSE,158,0.0,0.0,61,0.00,,,2.05,WUHU216HW,2013-06-25 20:57:00,
2013-06-25 16:02:00,88.4,73.3,29.78,SSE,158,0.0,0.0,61,0.00,,,2.05,WUHU216HW,2013-06-25 21:02:00,
2013-06-25 16:07:00,87.5,73.4,29.79,SSE,158,0.0,0.0,63,0.00,,,2.05,WUHU216HW,2013-06-25 21:07:00,
2013-06-25 16:12:00,86.9,73.3,29.79,SSE,158,0.0,0.0,64,0.00,,,2.05,WUHU216HW,2013-06-25 21:12:00,
2013-06-25 16:17:00,86.4,73.3,29.79,SSE,158,0.0,0.0,65,0.00,,,2.05,WUHU216HW,2013-06-25 21:17:00,
2013-06-25 16:22:00,86.0,73.4,29.79,SSE,158,0.0,0.0,66,0.00,,,2.05,WUHU216HW,2013-06-25 21:22:00,
2013-06-25 16:27:00,86.0,73.4,29.79,SSE,158,0.0,0.0,66,0.00,,,2.05,WUHU216HW,2013-06-25 21:27:00,
2013-06-25 16:32:00,85.3,72.7,29.79,SSE,158,0.0,0.0,66,0.00,,,2.05,WUHU216HW,2013-06-25 21:32:00,
2013-06-25 16:37:00,84.8,72.6,29.79,SSE,158,0.0,0.0,67,0.00,,,2.05,WUHU216HW,2013-06-25 21:37:00,
2013-06-25 16:42:00,85.0,73.3,29.78,SSE,158,0.0,0.0,68,0.00,,,2.05,WUHU216HW,2013-06-25 21:42:00,
2013-06-25 16:47:00,85.1,73.5,29.78,SSE,158,0.0,0.0,68,0.00,,,2.05,WUHU216HW,2013-06-25 21:47:00,
2013-06-25 16:52:00,85.5,73.8,29.78,SSE,158,0.0,0.0,68,0.00,,,2.05,WUHU216HW,2013-06-25 21:52:00,
2013-06-25 16:57:00,85.3,73.6,29.78,SSE,158,0.0,0.0,68,0.00,,,2.05,WUHU216HW,2013-06-25 21:57:00,
2013-06-25 17:02:00,85.0,73.3,29.78,SSE,158,0.0,0.0,68,0.00,,,2.05,WUHU216HW,2013-06-25 22:02:00,
2013-06-25 17:07:00,85.1,73.9,29.77,SSE,158,0.0,0.0,69,0.00,,,2.05,WUHU216HW,2013-06-25 22:07:00,
2013-06-25 17:12:00,85.5,74.3,29.77,SSE,158,0.0,0.0,69,0.00,,,2.05,WUHU216HW,2013-06-25 22:12:00,
2013-06-25 17:17:00,86.2,74.4,29.77,SSE,158,0.0,0.0,68,0.00,,,2.05,WUHU216HW,2013-06-25 22:17:00,
2013-06-25 17:22:00,86.8,75.0,29.77,SSE,158,0.0,0.0,68,0.00,,,2.05,WUHU216HW,2013-06-25 22:22:00,
2013-06-25 17:27:00,87.8,75.1,29.76,SSE,158,0.0,0.0,66,0.00,,,2.05,WUHU216HW,2013-06-25 22:27:00,
2013-06-25 17:32:00,87.3,74.1,29.76,SSE,158,0.0,0.0,65,0.00,,,2.05,WUHU216HW,2013-06-25 22:32:00,
2013-06-25 17:37:00,87.8,73.3,29.77,SSE,158,0.0,0.0,62,0.00,,,2.05,WUHU216HW,2013-06-25 22:37:00,
2013-06-25 17:42:00,88.2,74.5,29.77,SSE,158,0.0,0.0,64,0.00,,,2.05,WUHU216HW,2013-06-25 22:42:00,
2013-06-25 17:47:00,87.5,73.8,29.77,SSE,158,0.0,0.0,64,0.00,,,2.05,WUHU216HW,2013-06-25 22:47:00,
2013-06-25 17:52:00,87.5,73.8,29.77,SSE,158,0.0,0.0,64,0.00,,,2.05,WUHU216HW,2013-06-25 22:52:00,
2013-06-25 17:57:00,86.8,73.6,29.77,SSE,158,0.0,0.0,65,0.00,,,2.05,WUHU216HW,2013-06-25 22:57:00,
2013-06-25 18:02:00,86.4,73.3,29.77,SSE,158,0.0,0.0,65,0.00,,,2.05,WUHU216HW,2013-06-25 23:02:00,
2013-06-25 18:07:00,85.9,73.2,29.77,SSE,158,0.0,0.0,66,0.00,,,2.05,WUHU216HW,2013-06-25 23:07:00,
2013-06-25 18:12:00,85.5,73.4,29.77,SSE,158,0.0,0.0,67,0.00,,,2.05,WUHU216HW,2013-06-25 23:12:00,
2013-06-25 18:17:00,85.1,73.0,29.77,SSE,158,0.0,0.0,67,0.00,,,2.05,WUHU216HW,2013-06-25 23:17:00,
2013-06-25 18:22:00,84.6,72.9,29.77,SSE,158,0.0,0.0,68,0.00,,,2.05,WUHU216HW,2013-06-25 23:22:00,
2013-06-25 18:27:00,84.2,73.0,29.77,SSE,158,0.0,0.0,69,0.00,,,2.05,WUHU216HW,2013-06-25 23:27:00,
2013-06-25 18:32:00,84.2,73.4,29.77,SSE,158,0.0,0.0,70,0.00,,,2.05,WUHU216HW,2013-06-25 23:32:00,
2013-06-25 18:37:00,84.1,73.3,29.77,SSE,158,0.0,0.0,70,0.00,,,2.05,WUHU216HW,2013-06-25 23:37:00,
2013-06-25 18:42:00,83.9,73.1,29.77,SSE,158,0.0,0.0,70,0.00,,,2.05,WUHU216HW,2013-06-25 23:42:00,
2013-06-25 18:47:00,83.5,72.7,29.77,SSE,158,0.0,0.0,70,0.00,,,2.05,WUHU216HW,2013-06-25 23:47:00,
2013-06-25 18:52:00,83.0,73.0,29.77,SSE,158,0.0,0.0,72,0.00,,,2.05,WUHU216HW,2013-06-25 23:52:00,
2013-06-25 18:57:00,82.4,72.5,29.77,SSE,158,0.0,0.0,72,0.00,,,2.05,WUHU216HW,2013-06-25 23:57:00,
2013-06-25 19:02:00,81.9,71.6,29.77,SSE,158,0.0,0.0,71,0.00,,,2.05,WUHU216HW,2013-06-26 00:02:00,
2013-06-25 19:07:00,81.5,71.6,29.77,SSE,158,0.0,0.0,72,0.00,,,2.05,WUHU216HW,2013-06-26 00:07:00,
2013-06-25 19:12:00,81.0,71.6,29.76,SSE,158,0.0,0.0,73,0.00,,,2.05,WUHU216HW,2013-06-26 00:12:00,
2013-06-25 19:17:00,80.8,71.4,29.76,SSE,158,0.0,0.0,73,0.00,,,2.05,WUHU216HW,2013-06-26 00:17:00,
2013-06-25 19:22:00,80.3,71.3,29.76,SSE,158,0.0,0.0,74,0.00,,,2.05,WUHU216HW,2013-06-26 00:22:00,
2013-06-25 19:27:00,80.3,71.3,29.76,SSE,158,0.0,0.0,74,0.00,,,2.05,WUHU216HW,2013-06-26 00:27:00,
2013-06-25 19:32:00,79.9,71.3,29.76,SSE,158,0.0,0.0,75,0.00,,,2.05,WUHU216HW,2013-06-26 00:32:00,
2013-06-25 19:37:00,79.6,70.9,29.76,SSE,158,0.0,0.0,75,0.00,,,2.05,WUHU216HW,2013-06-26 00:37:00,
2013-06-25 19:42:00,79.4,70.7,29.76,SSE,158,0.0,0.0,75,0.00,,,2.05,WUHU216HW,2013-06-26 00:42:00,
2013-06-25 19:47:00,79.2,70.9,29.76,SSE,158,0.0,0.0,76,0.00,,,2.05,WUHU216HW,2013-06-26 00:47:00,
2013-06-25 19:52:00,78.8,71.0,29.76,SSE,158,0.0,0.0,77,0.00,,,2.05,WUHU216HW,2013-06-26 00:52:00,
2013-06-25 19:57:00,78.7,70.8,29.76,SSE,158,0.0,0.0,77,0.00,,,2.05,WUHU216HW,2013-06-26 00:57:00,
2013-06-25 20:02:00,78.3,70.5,29.76,SSE,158,0.0,0.0,77,0.00,,,2.05,WUHU216HW,2013-06-26 01:02:00,
2013-06-25 20:07:00,78.1,70.7,29.76,SSE,158,0.0,0.0,78,0.00,,,2.05,WUHU216HW,2013-06-26 01:07:00,
2013-06-25 20:12:00,77.9,70.5,29.76,SSE,158,0.0,0.0,78,0.00,,,2.05,WUHU216HW,2013-06-26 01:12:00,
2013-06-25 20:17:00,77.8,70.3,29.76,SSE,158,0.0,0.0,78,0.00,,,2.05,WUHU216HW,2013-06-26 01:17:00,
2013-06-25 20:22:00,77.4,70.4,29.76,SSE,158,0.0,0.0,79,0.00,,,2.05,WUHU216HW,2013-06-26 01:22:00,
2013-06-25 20:27:00,77.2,70.2,29.76,SSE,158,0.0,0.0,79,0.00,,,2.05,WUHU216HW,2013-06-26 01:27:00,
2013-06-25 20:32:00,77.0,70.0,29.76,SSE,158,0.0,0.0,79,0.00,,,2.05,WUHU216HW,2013-06-26 01:32:00,
2013-06-25 20:37:00,76.9,70.2,29.76,SSE,158,0.0,0.0,80,0.00,,,2.05,WUHU216HW,2013-06-26 01:37:00,
2013-06-25 20:42:00,76.7,70.0,29.76,SSE,158,0.0,0.0,80,0.00,,,2.05,WUHU216HW,2013-06-26 01:42:00,
2013-06-25 20:47:00,76.3,70.1,29.76,SSE,158,0.0,0.0,81,0.00,,,2.05,WUHU216HW,2013-06-26 01:47:00,
2013-06-25 20:52:00,76.3,70.1,29.76,SSE,158,0.0,0.0,81,0.00,,,2.05,WUHU216HW,2013-06-26 01:52:00,
2013-06-25 20:57:00,76.1,69.9,29.76,SSE,158,0.0,0.0,81,0.00,,,2.05,WUHU216HW,2013-06-26 01:57:00,
2013-06-25 21:02:00,76.0,69.8,29.76,SSE,158,0.0,0.0,81,0.00,,,2.05,WUHU216HW,2013-06-26 02:02:00,
2013-06-25 21:07:00,76.0,69.8,29.76,SSE,158,0.0,0.0,81,0.00,,,2.05,WUHU216HW,2013-06-26 02:07:00,
2013-06-25 21:12:00,75.8,69.6,29.76,SSE,158,0.0,0.0,81,0.00,,,2.05,WUHU216HW,2013-06-26 02:12:00,
2013-06-25 21:17:00,75.6,69.8,29.76,SSE,158,0.0,0.0,82,0.00,,,2.05,WUHU216HW,2013-06-26 02:17:00,
2013-06-25 21:22:00,75.6,69.8,29.76,SSE,158,0.0,0.0,82,0.00,,,2.05,WUHU216HW,2013-06-26 02:22:00,
2013-06-25 21:27:00,75.4,69.9,29.75,SSE,158,0.0,0.0,83,0.00,,,2.05,WUHU216HW,2013-06-26 02:27:00,
2013-06-25 21:32:00,75.2,69.8,29.75,SSE,158,0.0,0.0,83,0.00,,,2.05,WUHU216HW,2013-06-26 02:32:00,
2013-06-25 21:37:00,75.2,69.8,29.75,SSE,158,0.0,0.0,83,0.00,,,2.05,WUHU216HW,2013-06-26 02:37:00,
2013-06-25 21:42:00,74.9,69.4,29.75,SSE,158,0.0,0.0,83,0.00,,,2.05,WUHU216HW,2013-06-26 02:42:00,
2013-06-25 21:47:00,74.7,69.2,29.75,SSE,158,0.0,0.0,83,0.00,,,2.05,WUHU216HW,2013-06-26 02:47:00,
2013-06-25 21:52:00,74.5,69.4,29.76,SSE,158,0.0,0.0,84,0.00,,,2.05,WUHU216HW,2013-06-26 02:52:00,
2013-06-25 21:57:00,74.2,69.0,29.76,SSE,158,0.0,0.0,84,0.00,,,2.05,WUHU216HW,2013-06-26 02:57:00,
2013-06-25 22:02:00,74.0,68.9,29.76,SSE,158,0.0,0.0,84,0.00,,,2.05,WUHU216HW,2013-06-26 03:02:00,
2013-06-25 22:07:00,73.8,69.0,29.76,SSE,158,0.0,0.0,85,0.00,,,2.05,WUHU216HW,2013-06-26 03:07:00,
2013-06-25 22:12:00,73.8,69.0,29.76,SSE,158,0.0,0.0,85,0.00,,,2.05,WUHU216HW,2013-06-26 03:12:00,
2013-06-25 22:17:00,73.6,68.9,29.76,SSE,158,0.0,0.0,85,0.00,,,2.05,WUHU216HW,2013-06-26 03:17:00,
2013-06-25 22:22:00,73.8,69.0,29.76,SSE,158,0.0,0.0,85,0.00,,,2.05,WUHU216HW,2013-06-26 03:22:00,
2013-06-25 22:27:00,73.8,69.4,29.76,SSE,158,0.0,0.0,86,0.00,,,2.05,WUHU216HW,2013-06-26 03:27:00,
2013-06-25 22:32:00,73.8,69.4,29.76,SSE,158,0.0,0.0,86,0.00,,,2.05,WUHU216HW,2013-06-26 03:32:00,
2013-06-25 22:37:00,73.6,69.2,29.76,SSE,158,0.0,0.0,86,0.00,,,2.05,WUHU216HW,2013-06-26 03:37:00,
2013-06-25 22:42:00,73.6,69.2,29.76,SSE,158,0.0,0.0,86,0.00,,,2.05,WUHU216HW,2013-06-26 03:42:00,
2013-06-25 22:47:00,73.6,69.6,29.76,SSE,158,0.0,0.0,87,0.00,,,2.05,WUHU216HW,2013-06-26 03:47:00,
2013-06-25 22:52:00,73.8,69.8,29.76,SSE,158,0.0,0.0,87,0.00,,,2.05,WUHU216HW,2013-06-26 03:52:00,
2013-06-25 22:57:00,73.8,69.8,29.76,SSE,158,0.0,0.0,87,0.00,,,2.05,WUHU216HW,2013-06-26 03:57:00,
2013-06-25 23:01:00,73.8,69.8,29.76,SSE,158,0.0,0.0,87,0.00,,,2.05,WUHU216HW,2013-06-26 04:01:00,
2013-06-25 23:06:00,73.6,69.6,29.76,SSE,158,0.0,0.0,87,0.00,,,2.05,WUHU216HW,2013-06-26 04:06:00,
2013-06-25 23:11:00,73.4,69.4,29.76,SSE,158,0.0,0.0,87,0.00,,,2.05,WUHU216HW,2013-06-26 04:11:00,
2013-06-25 23:16:00,73.3,69.2,29.76,SSE,158,0.0,0.0,87,0.00,,,2.05,WUHU216HW,2013-06-26 04:16:00,
2013-06-25 23:21:00,73.3,69.2,29.76,SSE,158,0.0,0.0,87,0.00,,,2.05,WUHU216HW,2013-06-26 04:21:00,
2013-06-25 23:26:00,73.3,69.2,29.76,SSE,158,0.0,0.0,87,0.00,,,2.05,WUHU216HW,2013-06-26 04:26:00,
2013-06-25 23:31:00,73.3,69.2,29.76,SSE,158,0.0,0.0,87,0.00,,,2.05,WUHU216HW,2013-06-26 04:31:00,
2013-06-25 23:36:00,73.4,69.4,29.76,SSE,158,0.0,0.0,87,0.00,,,2.05,WUHU216HW,2013-06-26 04:36:00,
2013-06-25 23:41:00,73.4,69.7,29.76,SSE,158,0.0,0.0,88,0.00,,,2.05,WUHU216HW,2013-06-26 04:41:00,
2013-06-25 23:46:00,73.3,69.5,29.76,SSE,158,0.0,0.0,88,0.00,,,2.05,WUHU216HW,2013-06-26 04:46:00,
2013-06-25 23:51:00,73.3,69.5,29.76,SSE,158,0.0,0.0,88,0.00,,,2.05,WUHU216HW,2013-06-26 04:51:00,
2013-06-25 23:56:00,73.3,69.5,29.75,SSE,158,0.0,0.0,88,0.00,,,2.05,WUHU216HW,2013-06-26 04:56:00,